[[{"header":{"parameterUnit":"m.s-1","parameterCategory":1,"la1":30.2991,"la2":30.254,"lo1":-89.0895,"lo2":-89.0444,"dy":0.0017,"dx":0.0017,"nx":28,"ny":28,"refTime":"2023-10-02T21:00:00:Z","depth":0,"parameterNumber":2,"parameterNumberName":"U-component_of_WINDS"},"data":[0,0,0,0,0,0,0,0,0,0,0,0,0,0,0,0,0,0,0,0,0,0,0,0,0,0,0,0,0,0,0,0,0,0,0,0,0,0,0,0,0,0,0,0,0,0,0,0,0,0,0,0,0,0,0,0,0,0,-2.5617,-2.5618,0,-2.5711,-2.5712,-2.5713,-2.5603,-2.5599,-2.5595,-2.5591,-2.5696,-2.5703,-2.571,0,0,0,0,0,0,0,0,0,0,0,0,0,-2.535,-2.5355,-2.5617,-2.5618,-2.5619,-2.5711,-2.5712,-2.5714,-2.5604,-2.5599,-2.5594,-2.5589,-2.5694,-2.5702,-2.571,0,0,0,0,0,0,0,0,0,0,0,0,0,-2.5457,-2.5357,-2.5617,-2.5575,-2.5573,-2.5711,-2.5712,-2.5714,-2.5605,-2.5599,-2.5592,-2.5587,-2.5692,-2.5701,-2.5711,-2.5897,0,0,-2.5742,-2.5746,0,0,0,0,0,0,0,0,-2.5451,-2.5467,-2.558,-2.5578,-2.5576,-2.5639,-2.5657,-2.5776,-2.5606,-2.5593,-2.5591,-2.5584,-2.5683,-2.5693,-2.5725,-2.5902,-2.5907,-2.5743,-2.5749,-2.5753,-2.5756,0,0,0,0,0,0,0,-2.5444,-2.5463,-2.5654,-2.5582,-2.5579,-2.5555,-2.5563,-2.5679,-2.5672,-2.5594,-2.5586,-2.5598,-2.568,-2.5715,-2.5727,-2.5908,-2.5742,-2.5751,-2.5757,-2.5761,-2.6245,-2.6251,0,0,0,0,0,0,-2.544,-2.5457,-2.5651,-2.5657,-2.5497,-2.5564,-2.5574,-2.5625,-2.567,-2.5671,-2.5603,-2.5593,-2.5701,-2.5715,-2.573,-2.5952,-2.5753,-2.5762,-2.5768,-2.6238,-2.6246,-2.6254,0,0,0,0,0,0,-2.5435,-2.5459,-2.5648,-2.5555,-2.5577,-2.5576,-2.5634,-2.563,-2.5665,-2.5677,-2.5676,-2.564,-2.5697,-2.5716,-2.5856,-2.5954,-2.5767,-2.5776,-2.623,-2.6241,-2.625,-2.6398,0,0,0,0,0,0,-2.5428,-2.5457,-2.5527,-2.5557,-2.5582,-2.5771,-2.564,-2.5636,-2.5681,-2.5668,-2.5711,-2.5713,-2.5694,-2.5842,-2.5866,-2.5965,-2.5784,-2.6221,-2.6235,-2.6247,-2.6385,-2.6412,-2.6436,0,0,0,0,0,-2.5418,-2.5566,-2.5531,-2.5555,-2.5669,-2.5777,-2.5791,-2.5764,-2.569,-2.5761,-2.5768,-2.5711,-2.5939,-2.5857,-2.5884,-2.5987,-2.6215,-2.6231,-2.6246,-2.6373,-2.6407,-2.6436,0,0,0,0,0,0,-2.5551,-2.557,-2.553,-2.5692,-2.5733,-2.5758,-2.5846,-2.58,-2.5866,-2.5851,-2.5816,-2.5827,-2.5977,-2.5995,-2.5904,-2.617,-2.6065,-2.6087,-2.6153,-2.6185,-2.621,-2.6205,-2.5792,0,0,0,0,0,-2.5598,-2.5681,-2.5694,-2.5836,-2.5858,-2.5849,-2.5895,-2.5869,-2.5912,-2.593,-2.5948,-2.5994,-2.6076,-2.6131,-2.6207,-2.6385,-2.6395,-2.647,-2.6495,-2.6516,-2.6537,-2.6634,-2.6668,-2.6304,-2.6304,-2.6304,0,0,-2.5698,-2.5718,-2.5774,-2.5863,-2.5892,-2.5982,-2.5865,-2.5965,-2.6032,-2.5946,-2.608,-2.6095,-2.6144,-2.6305,-2.6376,-2.6325,-2.6638,-2.6536,-2.6552,-2.6561,-2.6654,-2.6688,-2.6719,-2.6315,-2.6313,-2.6311,0,0,-2.5927,-2.5949,-2.607,-2.6101,-2.6144,-2.6137,-2.6166,-2.6197,-2.6203,-2.6336,-2.6273,-2.6354,-2.6495,-2.6533,-2.6571,-2.6812,-2.6763,-2.6837,-2.6973,-2.7069,-2.7098,-2.7123,-2.7212,-2.7244,-2.6856,-2.6857,-2.6857,0,-2.6047,-2.6177,-2.6139,-2.6243,-2.6285,-2.6207,-2.6331,-2.6363,-2.6432,-2.6464,-2.6403,-2.6579,-2.6606,-2.6776,-2.6834,-2.6866,-2.6901,-2.6834,-2.7096,-2.7121,-2.7144,-2.7229,-2.7262,-2.6866,-2.6865,-2.6864,-2.6863,0,-2.6323,-2.6415,-2.6507,-2.6572,-2.6624,-2.6738,-2.6719,-2.6777,-2.6746,-2.6746,-2.6883,-2.6912,-2.6993,-2.7031,-2.7003,-2.7197,-2.7164,-2.71,-2.6995,-2.7188,-2.7267,-2.7299,-2.6879,-2.6876,-2.6873,-2.6871,0,0,-2.6642,-2.6681,-2.6717,-2.6745,-2.6787,-2.6858,-2.6969,-2.7044,-2.7096,-2.7145,-2.7239,-2.7359,-2.73,-2.7343,-2.7319,-2.7402,-2.7594,-2.7328,-2.7329,-2.738,-2.7813,-2.7863,-2.7901,-2.756,-2.7566,-2.7571,-2.781,0,-2.6873,-2.7062,-2.703,-2.7215,-2.73,-2.7226,-2.7323,-2.736,-2.7363,-2.7437,-2.744,-2.7527,-2.7441,-2.7467,-2.7546,-2.7554,-2.7682,-2.7536,-2.7652,-2.7656,-2.7645,-2.7942,-2.7995,-2.8219,-2.784,-2.7845,-2.7849,0,-2.7169,-2.7226,-2.7418,-2.7446,-2.7481,-2.7568,-2.7635,-2.7706,-2.7748,-2.7743,-2.779,-2.775,-2.7864,-2.7753,-2.791,-2.7812,-2.7857,-2.7868,-2.7876,-2.7889,-2.7767,-2.7966,-2.829,-2.8325,-2.7897,-2.7893,-2.7889,0,-2.7386,-2.751,-2.7641,-2.7668,-2.7703,-2.7766,-2.7785,-2.7819,-2.7867,-2.7926,-2.7957,-2.803,-2.8071,-2.813,-2.8112,-2.8032,-2.8274,-2.8161,-2.8277,-2.8278,-2.8335,-2.8332,-2.8674,-2.8358,-2.8357,-2.8357,-2.8356,0,-2.765,-2.7772,-2.7739,-2.7821,-2.7955,-2.7917,-2.8052,-2.8062,-2.8093,-2.8177,-2.8117,-2.8198,-2.8167,-2.8246,-2.8233,-2.8367,-2.8385,-2.8387,-2.8383,-2.8395,-2.8395,-2.8427,-2.8412,-2.8365,-2.8364,-2.8362,-2.836,0,-2.7917,-2.79,-2.8038,-2.8059,-2.8067,-2.8165,-2.8184,-2.8262,-2.8257,-2.8364,-2.8387,-2.8383,-2.8473,-2.8459,-2.856,-2.8551,-2.8719,-2.8694,-2.8705,-2.87,-2.8818,-2.8808,-2.9195,-2.9245,-2.8893,-2.8897,-2.8899,0,-2.8089,-2.818,-2.8209,-2.8259,-2.8281,-2.8363,-2.841,-2.8376,-2.8429,-2.8482,-2.8554,-2.8638,-2.8704,-2.8852,-2.886,-2.8938,-2.8916,-2.9046,-2.8928,-2.8937,-2.8922,-2.8919,-2.8929,-2.9071,-2.9075,-2.9078,-2.9081,0,-2.8396,-2.8382,-2.8451,-2.8517,-2.8575,-2.8626,-2.8672,-2.8717,-2.8688,-2.875,-2.8839,-2.889,-2.8992,-2.9078,-2.915,-2.9171,-2.9124,-2.9117,-2.9149,-2.9164,-2.9168,-2.917,-2.8773,-2.911,-2.9107,-2.9105,-2.9103,-2.9102,-2.8623,-2.8701,-2.8733,-2.8812,-2.8842,-2.8886,-2.8959,-2.8963,-2.9036,-2.9114,-2.909,-2.9193,-2.9232,-2.9324,-2.9353,-2.9435,-2.9388,-2.9432,-2.9444,-2.9457,-2.9472,-2.9151,-2.9448,-2.9447,-2.9446,-2.9445,-2.9445,0,-2.893,-2.8946,-2.9018,-2.9083,-2.9145,-2.9089,-2.9136,-2.9194,-2.9284,-2.9323,-2.9388,-2.9492,-2.9574,-2.9587,-2.9666,-2.9729,-2.9709,-2.9751,-2.9749,-2.9755,-2.9509,-2.9475,-2.9766,-2.9766,-2.9766,-2.9766,-2.9766,-2.9766,-2.9097,-2.9226,-2.9216,-2.936,-2.9376,-2.9474,-2.9506,-2.9547,-2.9578,-2.9696,-2.9762,-2.9768,-2.9798,-2.9878,-2.9952,-2.9953,-2.9987,-3.0039,-3.0033,-2.9804,-2.9772,-2.9742,-2.971,-3.0045,-3.0046,-3.0272,-3.0274,-3.0276]},{"header":{"parameterUnit":"m.s-1","parameterCategory":1,"la1":30.2991,"la2":30.254,"lo1":-89.0895,"lo2":-89.0444,"dy":0.0017,"dx":0.0017,"nx":28,"ny":28,"refTime":"2023-10-02T21:00:00:Z","depth":0,"parameterNumber":3,"parameterNumberName":"V-component_of_WINDS"},"data":[0,0,0,0,0,0,0,0,0,0,0,0,0,0,0,0,0,0,0,0,0,0,0,0,0,0,0,0,0,0,0,0,0,0,0,0,0,0,0,0,0,0,0,0,0,0,0,0,0,0,0,0,0,0,0,0,0,0,-2.0473,-2.0473,0,-2.0464,-2.0464,-2.0464,-2.0476,-2.0477,-2.0477,-2.0478,-2.0464,-2.0463,-2.0462,0,0,0,0,0,0,0,0,0,0,0,0,0,-2.0497,-2.0497,-2.0473,-2.0473,-2.0473,-2.0464,-2.0464,-2.0464,-2.0476,-2.0477,-2.0477,-2.0478,-2.0464,-2.0463,-2.0462,0,0,0,0,0,0,0,0,0,0,0,0,0,-2.0487,-2.0497,-2.0473,-2.0478,-2.0479,-2.0464,-2.0464,-2.0464,-2.0476,-2.0477,-2.0477,-2.0478,-2.0464,-2.0463,-2.0462,-2.0441,0,0,-2.0459,-2.0458,0,0,0,0,0,0,0,0,-2.0488,-2.0486,-2.0478,-2.0478,-2.0478,-2.0472,-2.0468,-2.0456,-2.0476,-2.0477,-2.0478,-2.0478,-2.0466,-2.0465,-2.0461,-2.0441,-2.044,-2.0458,-2.0458,-2.0457,-2.0457,0,0,0,0,0,0,0,-2.0488,-2.0487,-2.047,-2.0478,-2.0478,-2.0479,-2.0479,-2.0465,-2.0467,-2.0477,-2.0478,-2.0477,-2.0466,-2.0462,-2.0461,-2.044,-2.0459,-2.0457,-2.0457,-2.0456,-2.04,-2.0399,0,0,0,0,0,0,-2.0489,-2.0487,-2.047,-2.0469,-2.0485,-2.0479,-2.0478,-2.0473,-2.0468,-2.0468,-2.0476,-2.0477,-2.0464,-2.0462,-2.0461,-2.0434,-2.0457,-2.0456,-2.0456,-2.04,-2.0399,-2.0399,0,0,0,0,0,0,-2.049,-2.0487,-2.047,-2.0479,-2.0477,-2.0477,-2.0472,-2.0473,-2.0469,-2.0467,-2.0467,-2.0472,-2.0464,-2.0462,-2.0446,-2.0434,-2.0456,-2.0455,-2.0401,-2.04,-2.0399,-2.0382,0,0,0,0,0,0,-2.049,-2.0488,-2.0481,-2.0478,-2.0476,-2.0457,-2.0472,-2.0472,-2.0468,-2.0469,-2.0464,-2.0463,-2.0465,-2.0448,-2.0445,-2.0432,-2.0454,-2.0402,-2.0401,-2.0399,-2.0383,-2.038,-2.0377,0,0,0,0,0,-2.0491,-2.0476,-2.048,-2.0478,-2.0468,-2.0456,-2.0455,-2.0458,-2.0467,-2.0459,-2.0457,-2.0463,-2.0436,-2.0446,-2.0443,-2.043,-2.0403,-2.0401,-2.0399,-2.0385,-2.0381,-2.0377,0,0,0,0,0,0,-2.0475,-2.0476,-2.0481,-2.0464,-2.046,-2.0459,-2.0449,-2.0454,-2.0447,-2.0448,-2.0452,-2.045,-2.0432,-2.043,-2.0441,-2.0408,-2.0421,-2.0418,-2.041,-2.0407,-2.0404,-2.0403,-2.0453,0,0,0,0,0,-2.047,-2.0462,-2.0463,-2.0448,-2.0446,-2.0448,-2.0443,-2.0446,-2.0442,-2.0439,-2.0437,-2.0431,-2.0421,-2.0414,-2.0405,-2.0384,-2.0381,-2.0373,-2.037,-2.0368,-2.0365,-2.0351,-2.0347,-2.0393,-2.0393,-2.0393,0,0,-2.0459,-2.0458,-2.0453,-2.0445,-2.0442,-2.0432,-2.0446,-2.0436,-2.0428,-2.0437,-2.0421,-2.042,-2.0413,-2.0394,-2.0385,-2.0391,-2.0352,-2.0366,-2.0364,-2.0362,-2.0349,-2.0344,-2.034,-2.0391,-2.0392,-2.0392,0,0,-2.0433,-2.0433,-2.042,-2.0417,-2.0413,-2.0415,-2.0411,-2.0409,-2.0408,-2.0393,-2.0399,-2.0389,-2.0373,-2.0367,-2.0362,-2.0334,-2.0337,-2.033,-2.0314,-2.03,-2.0296,-2.0293,-2.028,-2.0276,-2.0328,-2.0328,-2.0328,0,-2.0419,-2.0406,-2.0412,-2.0401,-2.0396,-2.0406,-2.0392,-2.0389,-2.0381,-2.0377,-2.0385,-2.0363,-2.0359,-2.0337,-2.033,-2.0327,-2.0321,-2.033,-2.0297,-2.0294,-2.029,-2.0278,-2.0274,-2.0327,-2.0327,-2.0327,-2.0327,0,-2.0388,-2.0378,-2.0368,-2.0362,-2.0356,-2.0344,-2.0346,-2.034,-2.0344,-2.0343,-2.0326,-2.0323,-2.0312,-2.0307,-2.0311,-2.0285,-2.0289,-2.0297,-2.0308,-2.0285,-2.0273,-2.0269,-2.0325,-2.0326,-2.0326,-2.0326,0,0,-2.035,-2.0348,-2.0344,-2.034,-2.0337,-2.0329,-2.0316,-2.0307,-2.03,-2.0295,-2.0282,-2.0267,-2.0274,-2.0268,-2.0271,-2.0259,-2.0234,-2.0268,-2.0268,-2.0259,-2.0203,-2.0195,-2.019,-2.0238,-2.0237,-2.0236,-2.0202,0,-2.0322,-2.0301,-2.0306,-2.0284,-2.0274,-2.0284,-2.0272,-2.0268,-2.0267,-2.0258,-2.0257,-2.0245,-2.0257,-2.0253,-2.0242,-2.0239,-2.0222,-2.0242,-2.0223,-2.0222,-2.0222,-2.0184,-2.0176,-2.0144,-2.0198,-2.0197,-2.0197,0,-2.0287,-2.0281,-2.0258,-2.0255,-2.0251,-2.0241,-2.0232,-2.0224,-2.0218,-2.0218,-2.0212,-2.0216,-2.0201,-2.0215,-2.0193,-2.0206,-2.0199,-2.0196,-2.0195,-2.0191,-2.0206,-2.0176,-2.0134,-2.0128,-2.019,-2.0191,-2.0191,0,-2.0258,-2.0245,-2.0229,-2.0226,-2.0223,-2.0215,-2.0213,-2.0209,-2.0202,-2.0194,-2.0189,-2.0179,-2.0173,-2.0164,-2.0165,-2.0176,-2.0141,-2.0156,-2.0138,-2.0138,-2.0128,-2.0128,-2.0081,-2.0128,-2.0128,-2.0128,-2.0129,0,-2.0225,-2.021,-2.0216,-2.0206,-2.0189,-2.0195,-2.0177,-2.0176,-2.0172,-2.016,-2.0168,-2.0157,-2.016,-2.0148,-2.0148,-2.0128,-2.0126,-2.0123,-2.0123,-2.0121,-2.0121,-2.0114,-2.0115,-2.0127,-2.0127,-2.0128,-2.0128,0,-2.0189,-2.0194,-2.0176,-2.0175,-2.0174,-2.0161,-2.0159,-2.0149,-2.015,-2.0134,-2.0131,-2.0131,-2.0117,-2.0118,-2.0102,-2.0102,-2.0076,-2.008,-2.0078,-2.0078,-2.0059,-2.006,-2.0004,-1.9996,-2.0051,-2.005,-2.005,0,-2.0167,-2.0156,-2.0153,-2.0147,-2.0144,-2.0134,-2.0128,-2.0133,-2.0125,-2.0118,-2.0107,-2.0095,-2.0085,-2.0062,-2.0059,-2.0046,-2.0047,-2.0029,-2.0045,-2.0043,-2.0043,-2.0043,-2.004,-2.0025,-2.0024,-2.0024,-2.0023,0,-2.0125,-2.0127,-2.0119,-2.0111,-2.0103,-2.0097,-2.0091,-2.0084,-2.0089,-2.008,-2.0067,-2.0059,-2.0043,-2.0029,-2.0016,-2.0012,-2.0017,-2.0019,-2.0013,-2.0009,-2.0007,-2.0005,-2.0066,-2.0019,-2.0019,-2.002,-2.002,-2.002,-2.0093,-2.0083,-2.0079,-2.0069,-2.0065,-2.0059,-2.0049,-2.0049,-2.0038,-2.0026,-2.003,-2.0014,-2.0007,-1.9991,-1.9986,-1.9972,-1.9978,-1.9971,-1.9968,-1.9966,-1.9962,-2.0012,-1.997,-1.997,-1.997,-1.997,-1.997,0,-2.0049,-2.0047,-2.0038,-2.003,-2.0021,-2.003,-2.0023,-2.0015,-2.0001,-1.9995,-1.9985,-1.9968,-1.9955,-1.9951,-1.9937,-1.9927,-1.9928,-1.9922,-1.9921,-1.992,-1.9959,-1.9964,-1.9921,-1.9921,-1.9921,-1.9921,-1.9921,-1.9921,-2.0025,-2.0007,-2.0009,-1.9989,-1.9987,-1.9973,-1.9968,-1.9961,-1.9956,-1.9938,-1.9927,-1.9926,-1.992,-1.9906,-1.9892,-1.9892,-1.9884,-1.9877,-1.9876,-1.9913,-1.9917,-1.9922,-1.9926,-1.9876,-1.9876,-1.9838,-1.9837,-1.9837]}]]